Regional Weather Roundup
Issued by NWS

Home | Current Version | Previous Version | Text Only | Print | Product List | Glossary Off
Versions: 1 2 3 4 5 6 7 8 9 10 11 12 13 14 15 16 17 18 19 20 21 22 23 24 25 26 27 28 29 30 31 32 33 34 35 36 37 38 39 40 41 42 43 44 45 46 47 48 49 50

000
ASUS45 KPSR 011210
RWRAZ

ARIZONA HOURLY REGIONAL WEATHER ROUNDUP
NATIONAL WEATHER SERVICE PHOENIX AZ
500 AM MST TUE SEP 01 2015

NOTE: FAIR INDICATES FEW OR NO CLOUDS BELOW 12,000 FEET WITH NO
SIGNIFICANT WEATHER AND/OR OBSTRUCTIONS TO VISIBILITY.

AZZ001>003-036-011300-
NORTHWEST ARIZONA

CITY           SKY/WX    TMP DP  RH WIND       PRES   REMARKS
BULLHEAD CITY  CLEAR     84  50  30 S7        29.83R
KINGMAN        CLEAR     75  45  34 SE8       30.01R
6HR MIN TEMP:  74; 6HR MAX TEMP:  82;

$$

AZZ004>008-015-016-018-011300-
NORTH CENTRAL ARIZONA

CITY           SKY/WX    TMP DP  RH WIND       PRES   REMARKS
GRAND CANYON   CLEAR     52  50  93 NE3         N/A
6HR MIN TEMP:  51; 6HR MAX TEMP:  62; 6HR PCP:  0.02;

WILLIAMS       PTCLDY    55  52  88 S9        30.31S
PRESCOTT       PTCLDY    59  56  89 CALM      30.15F
6HR MIN TEMP:  59; 6HR MAX TEMP:  74;

FLAGSTAFF      CLEAR     50  50 100 CALM      30.29F
6HR MIN TEMP:  50; 6HR MAX TEMP:  56;

PAYSON         PTCLDY    61  57  88 CALM      30.18F
PAGE           PTCLDY    71  53  52 SW3       30.09R
6HR MIN TEMP:  71; 6HR MAX TEMP:  75;

$$

AZZ009>014-017-011300-
NORTHEAST ARIZONA

CITY           SKY/WX    TMP DP  RH WIND       PRES   REMARKS
WINSLOW        CLEAR     60  56  86 E6        30.15S
6HR MIN TEMP:  60; 6HR MAX TEMP:  65;

SAINT JOHNS    CLOUDY    61  54  77 NE5       30.21S
6HR MIN TEMP:  61; 6HR MAX TEMP:  64;

WINDOW ROCK    CLOUDY    56  49  77 CALM      30.28R
6HR MIN TEMP:  55; 6HR MAX TEMP:  61;

SHOW LOW       MOCLDY    54  52  94 S5        30.25S
$$

AZZ023-011300-
GREATER PHOENIX AREA

CITY           SKY/WX    TMP DP  RH WIND       PRES   REMARKS
PHOENIX          N/A    N/A N/A N/A MISG      29.90S
BUCKEYE        CLEAR     79  64  61 E10       29.89F
LUKE AFB       CLEAR     79  68  70 N3        29.90S
6HR MIN TEMP:  79; 6HR MAX TEMP:  88;

DEER VALLEY    PTCLDY    79  62  56 SE3       29.92S
6HR MIN TEMP:  79; 6HR MAX TEMP:  84;

SCOTTSDALE     PTCLDY    77  66  68 CALM      29.94S
6HR MIN TEMP:  77; 6HR MAX TEMP:  84; 6HR PCP: TRACE;

MESA-GATEWAY   MOCLDY    75  68  78 NE3       29.93F
$$

AZZ027-028-011300-
SOUTHWEST MARICOPA COUNTY AND PINAL COUNTY

CITY           SKY/WX    TMP DP  RH WIND       PRES   REMARKS
CASA GRANDE    MOCLDY    75  66  73 N6        29.90S
6HR MIN TEMP:  73; 6HR MAX TEMP:  77; 6HR PCP:  0.35;

GILA BEND      FAIR      84  62  46 SE8       29.85S
6HR MIN TEMP:  84; 6HR MAX TEMP:  93;

$$

AZZ503-504-507>509-011300-
SOUTHEAST ARIZONA

CITY           SKY/WX    TMP DP  RH WIND       PRES   REMARKS
TUCSON         MOCLDY    72  66  81 S5        30.01F
6HR MIN TEMP:  71; 6HR MAX TEMP:  80; 6HR PCP:  0.76;

DAVIS-MONTHAN  MOCLDY    72  65  78 SE12      29.99F
6HR MIN TEMP:  69; 6HR MAX TEMP:  76; 6HR PCP:  1.03;

NOGALES        MOCLDY    65  61  87 S3        30.09F
6HR MIN TEMP:  64; 6HR MAX TEMP:  69;

SIERRA VISTA   MOCLDY    65  58  79 S2        30.16F
6HR MIN TEMP:  64; 6HR MAX TEMP:  71;

DOUGLAS        PTCLDY    61  59  93 N8        30.12F
6HR MIN TEMP:  61; 6HR MAX TEMP:  69;

SAFFORD        CLOUDY    69  66  90 CALM      30.04S
6HR MIN TEMP:  67; 6HR MAX TEMP:  73;

$$

AZZ020-021-025-026-031-011300-
SOUTHWEST ARIZONA

CITY           SKY/WX    TMP DP  RH WIND       PRES   REMARKS
YUMA           CLEAR     88  70  55 CALM      29.78S
6HR MIN TEMP:  87; 6HR MAX TEMP:  89;

$$

CAZ031-033-041-043-047-048-061-011300-
SOUTHERN CALIFORNIA

CITY           SKY/WX    TMP DP  RH WIND       PRES   REMARKS
DOWNTOWN L.A.  CLOUDY    71  59  65 VRB3      29.89F
6HR MIN TEMP:  71; 6HR MAX TEMP:  72;

L.A. AIRPORT   MOCLDY    70  60  70 SE6       29.90S
6HR MIN TEMP:  69; 6HR MAX TEMP:  71;

SAN DIEGO      CLOUDY    71  60  68 S8        29.92S
6HR MIN TEMP:  69; 6HR MAX TEMP:  71;

BURBANK        CLOUDY    69  61  75 S5        29.90F
6HR MIN TEMP:  69; 6HR MAX TEMP:  71;

ONTARIO        CLOUDY    67  60  78 SW5       29.91F
6HR MIN TEMP:  66; 6HR MAX TEMP:  69;

RIVERSIDE      CLOUDY    67  60  78 CALM      29.92S
6HR MIN TEMP:  65; 6HR MAX TEMP:  70;

PALM SPRINGS   CLEAR     78  47  33 CALM      29.80R
6HR MIN TEMP:  77; 6HR MAX TEMP:  90;

EL CENTRO NAS  PTCLDY    81  55  40 E7        29.78R
6HR MIN TEMP:  78; 6HR MAX TEMP:  91;

IMPERIAL       PTCLDY    87  68  52 E6        29.75S
6HR MIN TEMP:  86; 6HR MAX TEMP:  92;

BLYTHE         CLEAR     85  62  46 SE8       29.80S
6HR MIN TEMP:  84; 6HR MAX TEMP:  91;

NEEDLES        CLEAR     89  45  21 SE6       29.83R
6HR MIN TEMP:  89; 6HR MAX TEMP:  97;

$$

NVZ020-UTZ003-011300-
SOUTHERN NEVADA-UTAH

CITY           SKY/WX    TMP DP  RH WIND       PRES   REMARKS
LAS VEGAS      CLEAR     81  41  24 S7        29.82R
6HR MIN TEMP:  81; 6HR MAX TEMP:  89;

SALT LAKE CITY PTCLDY    73  47  39 SE13      29.95S
6HR MIN TEMP:  72; 6HR MAX TEMP:  75;

$$

NMZ009-TXZ055-011300-
NEW MEXICO-WEST TEXAS

CITY           SKY/WX    TMP DP  RH WIND       PRES   REMARKS
ALBUQUERQUE    PTCLDY    66  48  52 SE6       30.17R
6HR MIN TEMP:  65; 6HR MAX TEMP:  76;

EL PASO        PTCLDY    74  47  38 N5        30.03R
6HR MIN TEMP:  71; 6HR MAX TEMP:  87;

$$


........................KEY........................
SKY/WX - SKY CONDITION/WEATHER
TMP    - TEMPERATURE IN FAHRENHEIT
DP     - DEW POINT IN FAHRENHEIT
RH     - RELATIVE HUMIDITY IN PERCENT
WIND   - DIRECTION AND SPEED IN MILES PER HOUR (MPH)
VRB    - VARIABLE WIND DIRECTION
PRES   - MEAN SEA LEVEL PRESSURE IN INCHES OF MERCURY
         F - FALLING PRESSURE   R - RISING PRESSURE
         S - STEADY PRESSURE
VSB    - VISIBILITY IN MILES
HX     - HEAT INDEX IN FAHRENHEIT
WCI    - WIND CHILL INDEX IN FAHRENHEIT
TC     - TEMPERATURE IN CELSIUS WHICH IS ALSO KNOWN AS
         TEMPERATURE IN CENTIGRADE
AFB    - AIR FORCE BASE
         LUKE AFB IS LUKE AIR FORCE BASE
         DAVIS-MONTHAN IS DAVIS-MONTHAN AIR FORCE BASE
NAS    - NAVAL AIR STATION
         EL CENTRO NAS IS EL CENTRO NAVAL AIR STATION
N/A    - NOT AVAILABLE



USA.gov is the U.S. government's official web portal to all federal, state and local government web resources and services.